Terminal Aerodrome Forecast
Issued by NWS Aberdeen, SD

Home | Current Version | Previous Version | Text Only | Print | Product List | Glossary On
Versions: 1 2 3 4 5 6 7 8 9 10 11 12 13 14 15 16 17 18 19 20 21 22 23 24 25 26 27 28 29 30 31 32 33 34 35 36 37 38 39 40 41 42 43 44 45 46 47 48
000
FTAK31 PAFA 290530
TAFABR
TAF
PABR 290530Z 2906/3006 07014KT P6SM FEW080 SCT250
     FM291900 07010KT P6SM SCT025 BKN050
     FM300200 30006KT P6SM BKN015 OVC025=

USA.gov is the U.S. government's official web portal to all federal, state and local government web resources and services.